#timestamp,LO_Frequency,Hit,StdDev 
1505343615.0,286047011.9,Y,0.0
1505343615.9,286046998.9,P,0.3
1505343635.8,286046999.4,N,0.3
1505343655.6,286046998.3,P,0.5
1505343675.5,286046999.1,N,0.4
1505343695.3,286046996.5,Y,0.0
1505343715.1,286046998.6,P,0.2
1505343735.9,286046998.8,P,0.2
1505343755.7,286046999.0,P,0.2
1505343775.6,286046999.2,Y,0.0
1505343795.4,286046998.2,P,0.3
1505343815.2,286046998.8,P,0.3
1505343835.1,286046998.3,P,0.3
1505343836.0,286046998.3,Y,0.0
1505343855.8,286047000.9,P,1.2
1505343875.7,286047001.1,N,1.2
1505343895.5,286047000.9,N,1.1
1505343915.3,286046998.1,N,1.3
1505343935.2,286046998.7,N,1.3
1505343955.0,286046998.9,N,1.2
1505343955.9,286046998.9,N,1.2
1505343975.8,286046999.4,N,1.1
1505343995.6,286046997.0,N,1.3
1505344015.4,286046999.1,N,1.2
1505344035.3,286046999.3,N,1.2
1505344055.1,286046996.8,N,1.3
1505344075.8,286046998.0,N,1.3
1505344095.7,286046997.2,N,1.3
1505344115.5,286046997.6,N,1.3
1505344135.4,286046995.2,Y,0.0
1505344155.2,286046997.9,P,0.4
1505344175.0,286046995.3,P,1.5
1505344175.9,286046995.3,P,1.6
1505344195.8,286046997.6,N,1.4
1505344215.6,286046997.7,N,1.3
1505344235.5,286046995.4,Y,0.0
1505344255.3,286046999.4,P,1.2
1505344275.1,286046998.4,N,0.9
1505344295.9,286046999.4,N,0.9
1505344315.7,286046999.1,N,0.9
1505344335.6,286046999.4,N,0.8
1505344355.4,286046998.8,N,0.8
1505344375.2,286042288.3,Y,0.0
1505344395.1,286047001.1,P,1.2
1505344396.0,286047001.1,N,1.1
1505344415.8,286046998.7,N,1.2
1505344435.7,286046998.5,N,1.2
1505344455.5,286046998.5,N,1.2
1505344475.4,286046998.4,N,1.1
1505344495.2,286046998.3,N,1.1
1505344515.0,286046998.8,N,1.1
1505344515.9,286046998.8,N,1.0
1505344535.8,286046998.8,N,1.0
1505344555.6,286046999.0,N,0.9
1505344575.4,286046999.3,N,0.9
1505344595.3,286046996.6,Y,0.0
1505344615.1,286046999.0,P,0.0
1505344635.9,286046999.3,P,0.1
1505344655.7,286046998.7,P,0.2
1505344675.5,286046998.2,Y,0.0
1505344695.4,286047000.0,P,0.5
1505344715.2,286047000.5,N,0.6
1505344735.1,286047000.4,N,0.6
1505344736.0,286047000.4,N,0.5
1505344755.8,286047000.5,N,0.5
1505344775.6,286047000.5,N,0.5
1505344795.5,286047000.6,N,0.5
1505344815.3,286046998.1,Y,0.0
1505344835.2,286046998.6,P,0.8
1505344855.9,286046998.4,N,0.8
1505344875.7,286046996.6,P,1.3
1505344895.6,286046998.4,N,1.2
1505344915.4,286046999.2,N,1.1
1505344935.3,286046999.2,N,1.0
1505344955.1,286046997.0,N,1.1
1505344956.0,286046997.0,N,1.1
1505344975.8,286046999.6,N,1.2
1505344995.7,286046996.6,N,1.2
1505345015.5,286046996.7,N,1.2
1505345035.3,286046999.6,N,1.3
1505345055.2,286046997.0,N,1.3
1505345075.0,286046997.0,N,1.2
1505345075.9,286046997.0,N,1.2
1505345095.8,286046996.8,N,1.2
1505345115.6,286046997.0,N,1.2
1505345135.4,286046999.2,N,1.2
1505345155.3,286046996.9,N,1.2
1505345175.1,286046997.0,N,1.2
1505345195.9,286046997.1,N,1.2
1505345215.7,286046997.7,N,1.2
1505345235.5,286046996.5,Y,0.0
1505345255.4,286047000.0,P,1.1
1505345275.2,286046999.8,N,1.0
1505345295.1,286047000.6,N,1.0
1505345296.0,286047000.6,N,1.0
1505345315.8,286047000.8,N,1.0
1505345335.6,286047000.3,N,0.9
1505345355.5,286046998.2,N,1.1
1505345375.3,286046998.3,N,1.1
1505345395.2,286046998.3,N,1.1
1505345415.9,286047001.1,N,1.2
1505345435.7,286046998.8,N,1.1
1505345455.6,286046998.2,N,1.1
1505345475.4,286046999.6,N,1.1
1505345495.2,286046999.6,N,1.1
1505345515.1,286046998.8,N,1.1
1505345516.0,286046998.8,N,1.0
1505345535.8,286046998.4,N,1.0
1505345555.7,286046997.0,N,1.1
1505345575.5,286046999.6,N,1.1
1505345595.3,286046998.8,N,1.1
1505345615.2,286046998.4,N,1.1
1505345635.0,286046999.5,N,1.0
1505345635.9,286046999.5,N,1.0
1505345655.8,286046998.9,N,1.0
1505345675.6,286046999.3,N,1.0
1505345695.4,286047000.6,N,1.0
1505345715.3,286047000.0,N,1.0
1505345735.1,286047001.1,N,1.0
1505345755.9,286047000.0,N,1.0
1505345775.7,286046998.1,N,1.0
1505345795.5,286047001.0,N,1.0
1505345815.4,286047001.2,N,1.1
1505345835.2,286046999.9,N,1.1
1505345855.1,286047000.9,N,1.1
1505345856.0,286047000.9,N,1.1
1505345875.8,286047000.6,N,1.1
1505345895.6,286047000.7,N,1.1
1505345915.5,286047000.8,N,1.1
1505345935.3,286047000.4,N,1.1
1505345955.2,286047002.7,N,1.2
1505345975.9,286047000.1,N,1.2
1505345995.7,286047002.0,N,1.2
1505346015.6,286047001.9,N,1.2
1505346035.4,286047001.6,N,1.3
1505346055.2,286047002.5,N,1.3
1505346075.1,286047002.1,N,1.3
1505346076.0,286047002.1,N,1.3
1505346095.8,286047001.4,N,1.2
1505346115.7,286047002.5,N,1.2
1505346135.5,286047002.1,N,1.2
1505346155.3,286047002.1,N,1.1
1505346175.2,286047000.4,N,1.1
1505346195.0,286047001.7,N,1.1
1505346195.9,286047001.7,N,1.0
1505346215.8,286047004.2,Y,0.0
1505346235.6,286047000.1,P,0.5
1505346255.4,286047002.3,P,0.9
1505346275.3,286047000.2,N,0.9
1505346295.1,286047000.2,N,0.8
1505346315.8,286047002.3,N,1.0
1505346335.7,286047002.0,N,0.9
1505346355.5,286047001.9,N,0.9
1505346375.4,286047001.9,N,0.9
1505346395.2,286047001.8,N,0.9
1505346415.0,286047001.5,N,0.8
1505346415.9,286047001.5,N,0.8
1505346435.8,286047002.6,Y,0.0
1505346455.6,286047000.4,P,0.5
1505346475.5,286047000.4,N,0.5
1505346495.3,286046998.1,P,1.2
1505346515.1,286047001.0,N,1.1
1505346535.9,286047000.4,N,1.0
1505346555.7,286047000.3,N,1.0
1505346575.6,286047000.5,N,0.9
1505346595.4,286047002.5,N,1.1
1505346615.2,286047000.1,N,1.1
1505346635.1,286047002.6,N,1.2
1505346636.0,286047002.6,N,1.2
1505346655.8,286047002.6,N,1.3
1505346675.6,286047001.3,N,1.2
1505346695.5,286047003.7,N,1.4
1505346715.3,286047004.3,Y,0.0
1505346735.2,286047002.8,P,0.8
1505346755.9,286047000.3,N,1.0
1505346775.7,286047000.1,N,1.1
1505346795.6,286047002.8,N,1.2
1505346815.4,286047001.9,N,1.1
1505346835.3,286047002.2,N,1.0
1505346855.1,286047002.0,N,1.0
1505346875.8,286047002.5,N,1.0
1505346895.7,286047001.5,N,0.9
1505346915.5,286046999.7,N,1.0
1505346935.4,286047002.2,N,1.0
1505346955.2,286047001.3,N,1.0
1505346975.0,286047001.8,N,0.9
1505346975.9,286047001.8,N,0.9
1505346995.8,286047004.0,Y,0.0
1505347015.6,286047000.1,P,0.8
1505347035.5,286047002.5,P,1.0
1505347055.3,286047002.2,N,0.9
1505347075.1,286047001.3,N,0.8
1505347095.9,286047004.0,Y,0.0
1505347115.7,286047002.2,P,0.3
1505347135.6,286046999.7,N,1.1
1505347155.4,286046998.6,N,1.4
1505347175.2,286046998.5,N,1.5
1505347195.1,286047000.7,N,1.4
1505347196.0,286047000.7,N,1.3
